カタログに戻る

CZ-6A DEB

運用中PO
NORAD 61359·DEBRIS·🇨🇳 China

打ち上げ Aug 6, 2024 から Taiyuan Satellite Launch Center

Loading…

次のパス (今後24時間)

TLE

最新Source: Space-Track

元期: Sep 14, 2026, 10:51 UTC

1 61359U 24140VY  26257.45272834  .00001740  00000-0  74349-3 0  9994
2 61359  89.0531 268.9098 0039347 251.7631 107.9278 14.24201414105299

AllMySatでCZ-6A DEBをリアルタイム追跡

Download on the App Store